Showing default

SPAWAR-CAL-O, 43766

Orbit data source: Space-Track

SPAWAR-CAL-O, 43766 is a payload satellite owned by SPAWAR (US) in SSO that was launched on Mon, 03 Dec 2018 UTC via an FALCON 9 launch vehicle from the Air Force Western Test Range (AFWTR). Payload-class satellites include a variety of spacecraft equipped with specific instruments for various scientific and technological missions. These include communications satellites like Starlink; space stations such as the ISS; scientific satellites like the Hubble; Earth observation satellites from companies like Planet Labs, Umbra, and HawkEye 360; GPS; miniature CubeSats for education and research; and military/defense satellites.

Loading next visibility...
Identifier
43766, 2018-099J
Orbit
SSO
Country
Flag of USUS
Related business
Manufacturer
SPAWAR?
Mission
Operational Defense Calibration
Bus & Motor
CUBESAT 1U, Unknown motor
Mass
1 kg wet, 1 kg dry
Launch date (UTC)
2018-12-03 (8 years ago)
Launch vehicle
FALCON 9
Launch site
Air Force Western Test Range (AFWTR)
Object type
Payload
Rocket body
Debris
Shape & HBR
Box, 0.1 m
Radar Cross Section
0.015 m², Medium (>0.1 m² and < 1m²)

Expand to show TLE details & history
Last TLE update: 17 hours ago

TLE from 17 hours ago
0 SPAWAR-CAL-O
1 43766U 18099J   26255.13050086  .00015057  00000-0  40284-3 0  9995
2 43766  97.4247 319.9880 0006635 348.8787  11.2310 15.38122756426879
Epoch: 2026-09-12T03:07Z
TLE epoch observation values (Epoch: 2026-09-12T03:07:55.274Z)
Latitude
-0.00003°
Longitude
-78.13622°
Altitude
450.329 km
Speed
7.645 km/s
True Right ascension
21h 19m 57s
True Declination
0° 00' 00"
Sunlit
Object was in full shadow at epoch
Visualization orbit readout
Latitude
Unknown
Longitude
Unknown
Altitude
Unknown
Speed
Unknown
Apparent Right ascension
Unknown
Apparent Declination
Unknown
Sunlit
N/A
Visualization observer readout
Local Sidereal Time
12:23:54
Azimuth
Unknown
Elevation
Unknown
Doppler factor
Unknown
Orbital elements
Apogee altitude
453.133 km
Perigee altitude
444.074 km
Semi-major axis
6,826.74 km
Eccentricity
0.00066
Inclination
97.4247°
RAAN
319.988°
Arg. of periapsis
348.8787°
True anomaly
11.24582°
Mean anomaly
11.231°
Eccentric anomaly
11.23841°
Mean motion
3.84789 °/min
Orbital period
93.56 mins
BSTAR
0.00040284
Loading maneuver chart data...
Computing Atmospheric mass density...
Loading historical data...
Loading historical data...
Loading historical data...
Loading historical data...
Loading historical data...
Loading historical data...
Loading historical data...

Documentation

Showing up to 5 results
|